| time (UTC) | temp F | wind direction | speed MPH | gust MPH | rain 1hr in | rain 24hr in | rain mn in | humidity % | barometer mb |
| 20260904213716 | 85 | 248 | 1.0 | 2.0 | 0.00 | 0.00 | 0.00 | 36 | 1021.4 |
| 20260904213212 | 86 | 107 | 0.0 | 1.0 | 0.00 | 0.00 | 0.00 | 39 | 1021.4 |
| 20260904212707 | 85 | 210 | 2.0 | 2.0 | 0.00 | 0.00 | 0.00 | 33 | 1021.7 |
| 20260904212202 | 84 | 179 | 0.0 | 1.0 | 0.00 | 0.00 | 0.00 | 35 | 1021.7 |
| 20260904211701 | 82 | 170 | 0.0 | 0.0 | 0.00 | 0.00 | 0.00 | 37 | 1021.7 |
| 20260904211156 | 82 | 166 | 0.0 | 1.0 | 0.00 | 0.00 | 0.00 | 36 | 1021.9 |
| 20260904210652 | 82 | 23 | 1.0 | 2.0 | 0.00 | 0.00 | 0.00 | 39 | 1021.8 |
| 20260904210147 | 86 | 192 | 0.0 | 0.0 | 0.00 | 0.00 | 0.00 | 34 | 1022.1 |
| 20260904205642 | 86 | 208 | 2.0 | 2.0 | 0.00 | 0.00 | 0.00 | 34 | 1021.9 |
| 20260904205139 | 86 | 149 | 0.0 | 0.0 | 0.00 | 0.00 | 0.00 | 43 | 1022.3 |
| 20260904204634 | 85 | 170 | 0.0 | 1.0 | 0.00 | 0.00 | 0.00 | 37 | 1022.0 |
| 20260904204130 | 83 | 183 | 1.0 | 1.0 | 0.00 | 0.00 | 0.00 | 38 | 1022.1 |
| 20260904203626 | 83 | 154 | 0.0 | 0.0 | 0.00 | 0.00 | 0.00 | 37 | 1022.4 |
| 20260904203123 | 83 | 278 | 1.0 | 2.0 | 0.00 | 0.00 | 0.00 | 38 | 1022.6 |
| 20260904202618 | 83 | 200 | 1.0 | 1.0 | 0.00 | 0.00 | 0.00 | 37 | 1022.5 |
| 20260904202115 | 81 | 209 | 1.0 | 1.0 | 0.00 | 0.00 | 0.00 | 39 | 1022.6 |
| 20260904201614 | 82 | 356 | 0.0 | 1.0 | 0.00 | 0.00 | 0.00 | 43 | 1022.8 |
| 20260904201109 | 84 | 162 | 0.0 | 1.0 | 0.00 | 0.00 | 0.00 | 38 | 1022.5 |
| 20260904200609 | 83 | 161 | 2.0 | 2.0 | 0.00 | 0.00 | 0.00 | 36 | 1022.6 |
| 20260904200104 | 81 | 137 | 3.0 | 6.0 | 0.00 | 0.00 | 0.00 | 43 | 1022.6 |
| 20260904195602 | 81 | 173 | 0.0 | 0.0 | 0.00 | 0.00 | 0.00 | 43 | 1022.9 |
| 20260904195101 | 79 | 153 | 0.0 | 1.0 | 0.00 | 0.00 | 0.00 | 45 | 1023.1 |
| 20260904194556 | 79 | 92 | 0.0 | 1.0 | 0.00 | 0.00 | 0.00 | 43 | 1023.0 |
| 20260904194051 | 79 | 81 | 3.0 | 3.0 | 0.00 | 0.00 | 0.00 | 43 | 1023.0 |
| 20260904193546 | 80 | 48 | 2.0 | 2.0 | 0.00 | 0.00 | 0.00 | 44 | 1022.9 |
| 20260904193043 | 78 | 202 | 1.0 | 1.0 | 0.00 | 0.00 | 0.00 | 44 | 1023.2 |
| 20260904192542 | 78 | 284 | 1.0 | 1.0 | 0.00 | 0.00 | 0.00 | 45 | 1023.4 |
| 20260904192038 | 78 | 114 | 1.0 | 1.0 | 0.00 | 0.00 | 0.00 | 43 | 1023.1 |
| 20260904191534 | 80 | 258 | 1.0 | 1.0 | 0.00 | 0.00 | 0.00 | 40 | 1023.2 |
| 20260904191030 | 82 | 347 | 0.0 | 1.0 | 0.00 | 0.00 | 0.00 | 39 | 1023.4 |
| 20260904190526 | 81 | 75 | 0.0 | 0.0 | 0.00 | 0.00 | 0.00 | 42 | 1023.2 |
| 20260904190022 | 81 | 93 | 0.0 | 1.0 | 0.00 | 0.00 | 0.00 | 40 | 1023.2 |
| 20260904185518 | 80 | 201 | 2.0 | 2.0 | 0.00 | 0.00 | 0.00 | 40 | 1023.4 |
| 20260904185012 | 78 | 91 | 0.0 | 1.0 | 0.00 | 0.00 | 0.00 | 44 | 1023.6 |
| 20260904184507 | 77 | 156 | 0.0 | 0.0 | 0.00 | 0.00 | 0.00 | 47 | 1023.5 |
| 20260904184002 | 77 | 176 | 0.0 | 1.0 | 0.00 | 0.00 | 0.00 | 45 | 1023.4 |
| 20260904183457 | 77 | 182 | 0.0 | 0.0 | 0.00 | 0.00 | 0.00 | 44 | 1023.4 |
| 20260904182952 | 78 | 155 | 1.0 | 1.0 | 0.00 | 0.00 | 0.00 | 43 | 1023.7 |
| 20260904182448 | 78 | 229 | 1.0 | 2.0 | 0.00 | 0.00 | 0.00 | 43 | 1023.6 |
| 20260904181947 | 78 | 200 | 1.0 | 2.0 | 0.00 | 0.00 | 0.00 | 44 | 1023.8 |
| 20260904181443 | 78 | 140 | 1.0 | 1.0 | 0.00 | 0.00 | 0.00 | 42 | 1023.6 |
| 20260904180938 | 78 | 138 | 0.0 | 0.0 | 0.00 | 0.00 | 0.00 | 43 | 1024.0 |
| 20260904180433 | 77 | 182 | 1.0 | 1.0 | 0.00 | 0.00 | 0.00 | 49 | 1023.7 |
| 20260904175932 | 76 | 154 | 0.0 | 0.0 | 0.00 | 0.00 | 0.00 | 45 | 1023.8 |
| 20260904175431 | 76 | 231 | 2.0 | 2.0 | 0.00 | 0.00 | 0.00 | 44 | 1023.8 |
| 20260904174926 | 77 | 211 | 1.0 | 2.0 | 0.00 | 0.00 | 0.00 | 42 | 1023.8 |
| 20260904174421 | 76 | 145 | 2.0 | 3.0 | 0.00 | 0.00 | 0.00 | 49 | 1023.8 |
| 20260904173918 | 75 | 157 | 1.0 | 1.0 | 0.00 | 0.00 | 0.00 | 48 | 1024.0 |
| 20260904173413 | 74 | 101 | 1.0 | 1.0 | 0.00 | 0.00 | 0.00 | 46 | 1024.0 |
| 20260904172909 | 74 | 174 | 1.0 | 1.0 | 0.00 | 0.00 | 0.00 | 46 | 1023.8 |
| 20260904172408 | 73 | 112 | 0.0 | 0.0 | 0.00 | 0.00 | 0.00 | 47 | 1023.8 |
| 20260904171903 | 72 | 93 | 1.0 | 2.0 | 0.00 | 0.00 | 0.00 | 51 | 1024.0 |
| 20260904171358 | 71 | 77 | 0.0 | 0.0 | 0.00 | 0.00 | 0.00 | 52 | 1024.0 |
| 20260904170854 | 71 | 134 | 0.0 | 0.0 | 0.00 | 0.00 | 0.00 | 54 | 1024.2 |
| 20260904170350 | 70 | 125 | 0.0 | 0.0 | 0.00 | 0.00 | 0.00 | 58 | 1024.2 |
| 20260904165844 | 69 | 140 | 0.0 | 0.0 | 0.00 | 0.00 | 0.00 | 56 | 1024.3 |
| 20260904165337 | 69 | 155 | 0.0 | 1.0 | 0.00 | 0.00 | 0.00 | 56 | 1024.3 |
| 20260904164832 | 68 | 129 | 0.0 | 0.0 | 0.00 | 0.00 | 0.00 | 60 | 1024.5 |
| 20260904164327 | 67 | 189 | 0.0 | 0.0 | 0.00 | 0.00 | 0.00 | 59 | 1024.3 |
| 20260904163824 | 67 | 218 | 0.0 | 0.0 | 0.00 | 0.00 | 0.00 | 59 | 1024.6 |
| 20260904163323 | 67 | 180 | 0.0 | 0.0 | 0.00 | 0.00 | 0.00 | 60 | 1024.3 |
| 20260904162822 | 66 | 101 | 1.0 | 1.0 | 0.00 | 0.00 | 0.00 | 60 | 1024.2 |
| 20260904162318 | 66 | 173 | 0.0 | 1.0 | 0.00 | 0.00 | 0.00 | 62 | 1024.3 |
| 20260904161813 | 65 | 173 | 0.0 | 0.0 | 0.00 | 0.00 | 0.00 | 62 | 1024.3 |
| 20260904161308 | 65 | 186 | 0.0 | 0.0 | 0.00 | 0.00 | 0.00 | 64 | 1024.2 |
| 20260904160803 | 65 | 151 | 0.0 | 0.0 | 0.00 | 0.00 | 0.00 | 66 | 1024.5 |
| 20260904160259 | 65 | 97 | 1.0 | 1.0 | 0.00 | 0.00 | 0.00 | 64 | 1024.2 |
| 20260904155758 | 64 | 139 | 0.0 | 0.0 | 0.00 | 0.00 | 0.00 | 69 | 1024.3 |
| 20260904155259 | 64 | 139 | 0.0 | 0.0 | 0.00 | 0.00 | 0.00 | 64 | 1024.2 |
| 20260904154757 | 64 | 126 | 0.0 | 0.0 | 0.00 | 0.00 | 0.00 | 63 | 1024.2 |
| 20260904154252 | 64 | 132 | 0.0 | 0.0 | 0.00 | 0.00 | 0.00 | 65 | 1024.2 |
| 20260904153748 | 64 | 143 | 0.0 | 0.0 | 0.00 | 0.00 | 0.00 | 63 | 1024.5 |
| 20260904153243 | 64 | 165 | 0.0 | 0.0 | 0.00 | 0.00 | 0.00 | 67 | 1024.3 |
| 20260904152739 | 63 | 147 | 0.0 | 0.0 | 0.00 | 0.00 | 0.00 | 68 | 1024.2 |
| 20260904152234 | 62 | 161 | 0.0 | 0.0 | 0.00 | 0.00 | 0.00 | 69 | 1024.1 |
| 20260904151729 | 62 | 161 | 0.0 | 0.0 | 0.00 | 0.00 | 0.00 | 71 | 1024.3 |
| 20260904151228 | 62 | 152 | 0.0 | 0.0 | 0.00 | 0.00 | 0.00 | 72 | 1024.0 |
| 20260904150724 | 62 | 135 | 0.0 | 0.0 | 0.00 | 0.00 | 0.00 | 70 | 1024.0 |
| 20260904150219 | 62 | 133 | 0.0 | 0.0 | 0.00 | 0.00 | 0.00 | 70 | 1024.5 |
| 20260904145717 | 62 | 22 | 1.0 | 1.0 | 0.00 | 0.00 | 0.00 | 66 | 1024.0 |
| 20260904145213 | 62 | 174 | 0.0 | 0.0 | 0.00 | 0.00 | 0.00 | 67 | 1024.2 |
| 20260904144708 | 61 | 110 | 0.0 | 0.0 | 0.00 | 0.00 | 0.00 | 71 | 1024.5 |
| 20260904144204 | 60 | 111 | 1.0 | 1.0 | 0.00 | 0.00 | 0.00 | 74 | 1024.1 |
| 20260904143659 | 59 | 142 | 0.0 | 0.0 | 0.00 | 0.00 | 0.00 | 75 | 1024.1 |
| 20260904143156 | 59 | 153 | 0.0 | 0.0 | 0.00 | 0.00 | 0.00 | 77 | 1024.6 |
| 20260904142652 | 59 | 160 | 0.0 | 0.0 | 0.00 | 0.00 | 0.00 | 80 | 1024.0 |
| 20260904142147 | 58 | 130 | 0.0 | 0.0 | 0.00 | 0.00 | 0.00 | 79 | 1024.2 |
| 20260904141642 | 56 | 144 | 0.0 | 0.0 | 0.00 | 0.00 | 0.00 | 81 | 1024.1 |
| 20260904141138 | 56 | 141 | 0.0 | 0.0 | 0.00 | 0.00 | 0.00 | 80 | 1024.3 |
| 20260904140633 | 54 | 190 | 0.0 | 0.0 | 0.00 | 0.00 | 0.00 | 85 | 1024.3 |
| 20260904140133 | 53 | 146 | 0.0 | 0.0 | 0.00 | 0.00 | 0.00 | 87 | 1024.2 |
| 20260904135627 | 53 | 138 | 0.0 | 0.0 | 0.00 | 0.00 | 0.00 | 89 | 1024.1 |
| 20260904135123 | 52 | 136 | 0.0 | 0.0 | 0.00 | 0.00 | 0.00 | 89 | 1024.2 |
| 20260904134619 | 52 | 148 | 0.0 | 0.0 | 0.00 | 0.00 | 0.00 | 89 | 1024.2 |
| 20260904134118 | 52 | 121 | 0.0 | 0.0 | 0.00 | 0.00 | 0.00 | 90 | 1023.8 |
| 20260904133613 | 52 | 118 | 0.0 | 0.0 | 0.00 | 0.00 | 0.00 | 91 | 1023.7 |
| 20260904133109 | 51 | 139 | 0.0 | 0.0 | 0.00 | 0.00 | 0.00 | 92 | 1024.0 |
| 20260904132608 | 51 | 176 | 0.0 | 0.0 | 0.00 | 0.00 | 0.00 | 93 | 1023.7 |
| 20260904132103 | 50 | 169 | 0.0 | 0.0 | 0.00 | 0.00 | 0.00 | 93 | 1023.6 |
| 20260904131603 | 50 | 175 | 0.0 | 0.0 | 0.00 | 0.00 | 0.00 | 93 | 1023.7 |
| 20260904131059 | 50 | 159 | 0.0 | 0.0 | 0.00 | 0.00 | 0.00 | 93 | 1023.5 |
| 20260904130558 | 50 | 159 | 0.0 | 0.0 | 0.00 | 0.00 | 0.00 | 92 | 1023.6 |
| 20260904130053 | 50 | 159 | 0.0 | 0.0 | 0.00 | 0.00 | 0.00 | 92 | 1023.5 |
| 20260904125549 | 50 | 150 | 0.0 | 0.0 | 0.00 | 0.00 | 0.00 | 92 | 1023.2 |
| 20260904125044 | 50 | 154 | 0.0 | 0.0 | 0.00 | 0.00 | 0.00 | 92 | 1023.5 |
| 20260904124539 | 50 | 138 | 0.0 | 0.0 | 0.00 | 0.00 | 0.00 | 92 | 1023.5 |
| 20260904124035 | 49 | 154 | 0.0 | 0.0 | 0.00 | 0.00 | 0.00 | 94 | 1023.2 |
| 20260904123535 | 49 | 153 | 0.0 | 0.0 | 0.00 | 0.00 | 0.00 | 94 | 1023.5 |
| 20260904123030 | 49 | 167 | 0.0 | 0.0 | 0.00 | 0.00 | 0.00 | 93 | 1023.4 |
| 20260904122530 | 50 | 167 | 0.0 | 0.0 | 0.00 | 0.00 | 0.00 | 93 | 1023.2 |
| 20260904122025 | 49 | 180 | 0.0 | 0.0 | 0.00 | 0.00 | 0.00 | 93 | 1023.2 |
| 20260904121521 | 49 | 191 | 0.0 | 0.0 | 0.00 | 0.00 | 0.00 | 93 | 1023.2 |
| 20260904121017 | 50 | 140 | 0.0 | 0.0 | 0.00 | 0.00 | 0.00 | 93 | 1023.0 |
| 20260904120513 | 49 | 131 | 0.0 | 0.0 | 0.00 | 0.00 | 0.00 | 93 | 1023.1 |
| 20260904120008 | 50 | 153 | 0.0 | 0.0 | 0.00 | 0.00 | 0.00 | 93 | 1023.0 |
| 20260904115504 | 50 | 154 | 0.0 | 0.0 | 0.00 | 0.00 | 0.00 | 94 | 1022.9 |
| 20260904115003 | 50 | 134 | 0.0 | 0.0 | 0.00 | 0.00 | 0.00 | 94 | 1023.0 |
| 20260904114458 | 50 | 150 | 0.0 | 0.0 | 0.00 | 0.00 | 0.00 | 94 | 1022.9 |
| 20260904113953 | 50 | 139 | 0.0 | 0.0 | 0.00 | 0.00 | 0.00 | 94 | 1023.1 |
| 20260904113452 | 49 | 152 | 0.0 | 0.0 | 0.00 | 0.00 | 0.00 | 94 | 1022.8 |
| 20260904112952 | 49 | 185 | 0.0 | 0.0 | 0.00 | 0.00 | 0.00 | 94 | 1022.9 |
| 20260904112448 | 49 | 185 | 0.0 | 0.0 | 0.00 | 0.00 | 0.00 | 94 | 1022.9 |
| 20260904111943 | 48 | 174 | 0.0 | 0.0 | 0.00 | 0.00 | 0.00 | 94 | 1022.9 |
| 20260904111439 | 49 | 174 | 0.0 | 0.0 | 0.00 | 0.00 | 0.00 | 93 | 1022.8 |
| 20260904110934 | 49 | 174 | 0.0 | 0.0 | 0.00 | 0.00 | 0.00 | 93 | 1022.8 |
| 20260904110433 | 49 | 179 | 0.0 | 0.0 | 0.00 | 0.00 | 0.00 | 93 | 1023.0 |
| 20260904105928 | 50 | 147 | 0.0 | 0.0 | 0.00 | 0.00 | 0.00 | 93 | 1022.8 |
| 20260904105424 | 50 | 143 | 0.0 | 0.0 | 0.00 | 0.00 | 0.00 | 94 | 1022.8 |
| 20260904104919 | 49 | 147 | 0.0 | 0.0 | 0.00 | 0.00 | 0.00 | 93 | 1022.6 |
| 20260904104418 | 49 | 148 | 0.0 | 0.0 | 0.00 | 0.00 | 0.00 | 93 | 1022.5 |
| 20260904103915 | 49 | 158 | 0.0 | 0.0 | 0.00 | 0.00 | 0.00 | 93 | 1022.8 |
| 20260904103410 | 50 | 184 | 0.0 | 0.0 | 0.00 | 0.00 | 0.00 | 92 | 1022.5 |
| 20260904102907 | 50 | 156 | 0.0 | 0.0 | 0.00 | 0.00 | 0.00 | 93 | 1022.8 |
| 20260904102402 | 50 | 156 | 0.0 | 0.0 | 0.00 | 0.00 | 0.00 | 93 | 1022.4 |
| 20260904101857 | 49 | 179 | 0.0 | 0.0 | 0.00 | 0.00 | 0.00 | 94 | 1022.4 |
| 20260904101354 | 50 | 160 | 0.0 | 0.0 | 0.00 | 0.00 | 0.00 | 93 | 1022.4 |
| 20260904100849 | 50 | 160 | 0.0 | 0.0 | 0.00 | 0.00 | 0.00 | 92 | 1022.4 |
| 20260904100345 | 50 | 157 | 0.0 | 0.0 | 0.00 | 0.00 | 0.00 | 92 | 1022.3 |
| 20260904095839 | 50 | 160 | 0.0 | 0.0 | 0.00 | 0.00 | 0.00 | 92 | 1022.3 |
| 20260904095334 | 50 | 175 | 0.0 | 0.0 | 0.00 | 0.00 | 0.00 | 91 | 1022.3 |
| 20260904094829 | 50 | 175 | 0.0 | 0.0 | 0.00 | 0.00 | 0.00 | 91 | 1022.1 |
| 20260904094324 | 50 | 177 | 0.0 | 0.0 | 0.00 | 0.00 | 0.00 | 91 | 1022.3 |
| 20260904093820 | 50 | 177 | 0.0 | 0.0 | 0.00 | 0.00 | 0.00 | 90 | 1022.0 |
| 20260904093315 | 51 | 147 | 0.0 | 0.0 | 0.00 | 0.00 | 0.00 | 91 | 1022.1 |
| 20260904092810 | 51 | 115 | 1.0 | 1.0 | 0.00 | 0.00 | 0.00 | 91 | 1022.1 |
| 20260904092307 | 50 | 173 | 0.0 | 0.0 | 0.00 | 0.00 | 0.00 | 91 | 1021.8 |
| 20260904091803 | 50 | 156 | 0.0 | 0.0 | 0.00 | 0.00 | 0.00 | 92 | 1022.1 |
| 20260904091302 | 51 | 156 | 0.0 | 0.0 | 0.00 | 0.00 | 0.00 | 92 | 1022.0 |
| 20260904090758 | 51 | 171 | 0.0 | 0.0 | 0.00 | 0.00 | 0.00 | 91 | 1022.1 |
| 20260904090254 | 51 | 185 | 0.0 | 0.0 | 0.00 | 0.00 | 0.00 | 90 | 1022.3 |
| 20260904085749 | 51 | 191 | 0.0 | 0.0 | 0.00 | 0.00 | 0.00 | 90 | 1022.3 |
| 20260904085244 | 51 | 151 | 0.0 | 0.0 | 0.00 | 0.00 | 0.00 | 90 | 1022.3 |
| 20260904084738 | 51 | 151 | 0.0 | 0.0 | 0.00 | 0.00 | 0.00 | 89 | 1022.3 |
| 20260904084234 | 51 | 151 | 0.0 | 0.0 | 0.00 | 0.00 | 0.00 | 88 | 1022.3 |
| 20260904083730 | 52 | 170 | 0.0 | 0.0 | 0.00 | 0.00 | 0.00 | 86 | 1022.1 |
| 20260904083226 | 52 | 170 | 0.0 | 0.0 | 0.00 | 0.00 | 0.00 | 85 | 1022.3 |
| 20260904082720 | 52 | 167 | 0.0 | 0.0 | 0.00 | 0.00 | 0.00 | 85 | 1022.0 |
| 20260904082216 | 53 | 145 | 0.0 | 0.0 | 0.00 | 0.00 | 0.00 | 85 | 1022.1 |
| 20260904081711 | 53 | 146 | 0.0 | 0.0 | 0.00 | 0.00 | 0.00 | 86 | 1022.3 |
| 20260904081207 | 53 | 186 | 0.0 | 0.0 | 0.00 | 0.00 | 0.00 | 81 | 1022.3 |
| 20260904080703 | 53 | 160 | 0.0 | 0.0 | 0.00 | 0.00 | 0.00 | 81 | 1022.3 |
| 20260904080158 | 53 | 192 | 0.0 | 0.0 | 0.00 | 0.00 | 0.00 | 83 | 1022.5 |
| 20260904075655 | 53 | 160 | 0.0 | 0.0 | 0.00 | 0.00 | 0.00 | 85 | 1022.4 |
| 20260904075155 | 53 | 160 | 0.0 | 0.0 | 0.00 | 0.00 | 0.00 | 85 | 1022.5 |
| 20260904074648 | 54 | 141 | 0.0 | 0.0 | 0.00 | 0.00 | 0.00 | 84 | 1022.5 |
| 20260904074143 | 54 | 160 | 0.0 | 0.0 | 0.00 | 0.00 | 0.00 | 83 | 1022.6 |
| 20260904073638 | 54 | 155 | 0.0 | 0.0 | 0.00 | 0.00 | 0.00 | 82 | 1022.3 |
| 20260904073135 | 54 | 135 | 0.0 | 0.0 | 0.00 | 0.00 | 0.00 | 84 | 1022.9 |
| 20260904072630 | 54 | 185 | 0.0 | 0.0 | 0.00 | 0.00 | 0.00 | 81 | 1022.8 |
| 20260904072125 | 54 | 208 | 0.0 | 0.0 | 0.00 | 0.00 | 0.00 | 84 | 1022.5 |
| 20260904071621 | 54 | 152 | 0.0 | 0.0 | 0.00 | 0.00 | 0.00 | 83 | 1022.6 |
| 20260904071115 | 55 | 152 | 0.0 | 0.0 | 0.00 | 0.00 | 0.00 | 82 | 1022.4 |
| 20260904070614 | 55 | 152 | 0.0 | 0.0 | 0.00 | 0.00 | 0.00 | 80 | 1022.5 |
| 20260904070109 | 55 | 152 | 0.0 | 0.0 | 0.00 | 0.00 | 0.00 | 80 | 1022.4 |
| 20260904065604 | 55 | 170 | 0.0 | 0.0 | 0.00 | 0.00 | 0.00 | 80 | 1022.6 |
| 20260904065101 | 55 | 149 | 0.0 | 0.0 | 0.00 | 0.00 | 0.00 | 78 | 1022.4 |
| 20260904064556 | 56 | 148 | 0.0 | 0.0 | 0.00 | 0.00 | 0.00 | 81 | 1022.5 |
| 20260904064055 | 56 | 151 | 0.0 | 0.0 | 0.00 | 0.00 | 0.00 | 81 | 1022.3 |
| 20260904063552 | 56 | 132 | 0.0 | 0.0 | 0.00 | 0.00 | 0.00 | 79 | 1022.4 |
| 20260904063047 | 56 | 171 | 0.0 | 0.0 | 0.00 | 0.00 | 0.00 | 76 | 1022.4 |
| 20260904062543 | 56 | 176 | 0.0 | 0.0 | 0.00 | 0.00 | 0.00 | 76 | 1022.5 |
| 20260904062038 | 56 | 258 | 0.0 | 1.0 | 0.00 | 0.00 | 0.00 | 79 | 1022.3 |
| 20260904061534 | 56 | 142 | 0.0 | 0.0 | 0.00 | 0.00 | 0.00 | 78 | 1022.4 |
| 20260904061031 | 55 | 186 | 0.0 | 0.0 | 0.00 | 0.00 | 0.00 | 77 | 1022.1 |
| 20260904060527 | 55 | 176 | 0.0 | 0.0 | 0.00 | 0.00 | 0.00 | 77 | 1022.4 |
| 20260904060022 | 55 | 174 | 0.0 | 0.0 | 0.00 | 0.02 | 0.02 | 78 | 1022.3 |
| 20260904055517 | 56 | 166 | 0.0 | 0.0 | 0.00 | 0.02 | 0.02 | 79 | 1022.3 |
| 20260904055012 | 56 | 143 | 0.0 | 0.0 | 0.00 | 0.02 | 0.02 | 79 | 1022.3 |
| 20260904054508 | 57 | 100 | 2.0 | 2.0 | 0.00 | 0.02 | 0.02 | 76 | 1022.0 |
| 20260904054004 | 57 | 220 | 0.0 | 0.0 | 0.00 | 0.02 | 0.02 | 70 | 1022.1 |
| 20260904053503 | 57 | 184 | 0.0 | 0.0 | 0.00 | 0.02 | 0.02 | 73 | 1021.9 |
| 20260904052958 | 56 | 186 | 0.0 | 0.0 | 0.00 | 0.02 | 0.02 | 75 | 1021.8 |
| 20260904052455 | 56 | 196 | 0.0 | 0.0 | 0.00 | 0.02 | 0.02 | 75 | 1022.0 |
| 20260904051950 | 56 | 161 | 0.0 | 0.0 | 0.00 | 0.02 | 0.02 | 76 | 1021.9 |
| 20260904051447 | 56 | 161 | 0.0 | 0.0 | 0.00 | 0.02 | 0.02 | 77 | 1021.5 |
| 20260904050946 | 57 | 153 | 0.0 | 0.0 | 0.00 | 0.02 | 0.02 | 75 | 1021.7 |
| 20260904050443 | 57 | 153 | 0.0 | 0.0 | 0.00 | 0.02 | 0.02 | 77 | 1021.7 |
| 20260904045938 | 56 | 148 | 0.0 | 0.0 | 0.00 | 0.02 | 0.02 | 78 | 1021.9 |
| 20260904045433 | 57 | 148 | 0.0 | 0.0 | 0.00 | 0.02 | 0.02 | 75 | 1021.7 |
| 20260904044932 | 56 | 147 | 0.0 | 0.0 | 0.00 | 0.02 | 0.02 | 81 | 1022.0 |
| 20260904044429 | 55 | 167 | 0.0 | 0.0 | 0.00 | 0.02 | 0.02 | 80 | 1021.9 |
| 20260904043925 | 55 | 167 | 0.0 | 0.0 | 0.00 | 0.02 | 0.02 | 79 | 1022.0 |
| 20260904043421 | 55 | 168 | 0.0 | 0.0 | 0.00 | 0.02 | 0.02 | 78 | 1022.0 |
| 20260904042916 | 56 | 145 | 0.0 | 0.0 | 0.00 | 0.02 | 0.02 | 78 | 1021.8 |
| 20260904042413 | 56 | 155 | 0.0 | 0.0 | 0.00 | 0.02 | 0.02 | 72 | 1021.8 |
| 20260904041908 | 56 | 155 | 0.0 | 0.0 | 0.00 | 0.02 | 0.02 | 76 | 1021.7 |
| 20260904041404 | 56 | 157 | 0.0 | 0.0 | 0.00 | 0.02 | 0.02 | 78 | 1021.8 |
| 20260904040900 | 56 | 158 | 0.0 | 0.0 | 0.00 | 0.02 | 0.02 | 75 | 1021.8 |
| 20260904040354 | 56 | 173 | 0.0 | 0.0 | 0.00 | 0.02 | 0.02 | 76 | 1021.7 |
| 20260904035850 | 56 | 175 | 0.0 | 0.0 | 0.00 | 0.02 | 0.02 | 76 | 1021.4 |
| 20260904035346 | 56 | 175 | 0.0 | 0.0 | 0.00 | 0.02 | 0.02 | 80 | 1021.7 |
| 20260904034845 | 56 | 174 | 0.0 | 0.0 | 0.00 | 0.02 | 0.02 | 77 | 1021.5 |
| 20260904034341 | 57 | 175 | 0.0 | 0.0 | 0.00 | 0.02 | 0.02 | 76 | 1021.7 |
| 20260904033837 | 58 | 175 | 0.0 | 0.0 | 0.00 | 0.02 | 0.02 | 76 | 1021.8 |
| 20260904033333 | 58 | 182 | 0.0 | 0.0 | 0.00 | 0.02 | 0.02 | 75 | 1021.5 |
| 20260904032829 | 59 | 154 | 0.0 | 0.0 | 0.00 | 0.02 | 0.02 | 69 | 1021.5 |
| 20260904032329 | 58 | 177 | 0.0 | 0.0 | 0.00 | 0.02 | 0.02 | 70 | 1021.4 |
| 20260904031822 | 59 | 177 | 0.0 | 0.0 | 0.00 | 0.02 | 0.02 | 73 | 1021.7 |
| 20260904031318 | 59 | 181 | 0.0 | 0.0 | 0.00 | 0.02 | 0.02 | 72 | 1021.5 |
| 20260904030814 | 59 | 133 | 0.0 | 0.0 | 0.00 | 0.02 | 0.02 | 73 | 1021.5 |
| 20260904030309 | 60 | 160 | 0.0 | 0.0 | 0.00 | 0.02 | 0.02 | 72 | 1021.4 |
| 20260904025805 | 60 | 140 | 0.0 | 0.0 | 0.00 | 0.02 | 0.02 | 73 | 1021.2 |
| 20260904025300 | 60 | 174 | 0.0 | 0.0 | 0.00 | 0.02 | 0.02 | 67 | 1020.9 |
| 20260904024750 | 61 | 174 | 0.0 | 0.0 | 0.00 | 0.02 | 0.02 | 68 | 1021.0 |
| 20260904024245 | 62 | 174 | 0.0 | 0.0 | 0.00 | 0.02 | 0.02 | 68 | 1021.3 |
| 20260904023742 | 61 | 171 | 0.0 | 0.0 | 0.00 | 0.02 | 0.02 | 60 | 1021.2 |
| 20260904023237 | 61 | 160 | 0.0 | 0.0 | 0.00 | 0.02 | 0.02 | 64 | 1020.9 |
| 20260904022736 | 61 | 155 | 0.0 | 0.0 | 0.00 | 0.02 | 0.02 | 64 | 1021.0 |
| 20260904022234 | 61 | 152 | 0.0 | 0.0 | 0.00 | 0.02 | 0.02 | 71 | 1020.8 |
| 20260904021730 | 62 | 168 | 0.0 | 0.0 | 0.00 | 0.02 | 0.02 | 69 | 1020.8 |
| 20260904021230 | 62 | 164 | 0.0 | 0.0 | 0.00 | 0.02 | 0.02 | 64 | 1020.8 |
| 20260904020726 | 62 | 164 | 0.0 | 0.0 | 0.00 | 0.02 | 0.02 | 63 | 1020.7 |
| 20260904020225 | 63 | 171 | 0.0 | 0.0 | 0.00 | 0.02 | 0.02 | 64 | 1020.4 |
| 20260904015724 | 64 | 171 | 0.0 | 0.0 | 0.00 | 0.02 | 0.02 | 64 | 1020.4 |
| 20260904015219 | 64 | 168 | 0.0 | 0.0 | 0.00 | 0.02 | 0.02 | 62 | 1020.4 |
| 20260904014717 | 64 | 183 | 0.0 | 0.0 | 0.00 | 0.02 | 0.02 | 62 | 1020.6 |
| 20260904014213 | 65 | 143 | 0.0 | 0.0 | 0.00 | 0.02 | 0.02 | 61 | 1020.6 |
| 20260904013709 | 66 | 141 | 0.0 | 0.0 | 0.00 | 0.02 | 0.02 | 61 | 1020.3 |
| 20260904013205 | 69 | 105 | 1.0 | 1.0 | 0.00 | 0.02 | 0.02 | 58 | 1019.9 |
| 20260904012701 | 69 | 195 | 0.0 | 0.0 | 0.00 | 0.02 | 0.02 | 47 | 1019.9 |
| 20260904012159 | 69 | 210 | 0.0 | 0.0 | 0.00 | 0.02 | 0.02 | 46 | 1020.2 |
| 20260904011659 | 70 | 214 | 0.0 | 0.0 | 0.00 | 0.02 | 0.02 | 48 | 1020.4 |
| 20260904011154 | 70 | 166 | 0.0 | 0.0 | 0.00 | 0.02 | 0.02 | 46 | 1020.2 |
| 20260904010649 | 71 | 166 | 0.0 | 0.0 | 0.00 | 0.02 | 0.02 | 46 | 1020.4 |
| 20260904010146 | 72 | 167 | 0.0 | 0.0 | 0.00 | 0.02 | 0.02 | 42 | 1020.2 |
| 20260904005641 | 73 | 179 | 0.0 | 0.0 | 0.00 | 0.02 | 0.02 | 40 | 1020.3 |
| 20260904005136 | 74 | 185 | 0.0 | 0.0 | 0.00 | 0.02 | 0.02 | 40 | 1020.1 |
| 20260904004632 | 74 | 175 | 0.0 | 0.0 | 0.00 | 0.02 | 0.02 | 40 | 1020.1 |
| 20260904004126 | 74 | 149 | 0.0 | 0.0 | 0.00 | 0.02 | 0.02 | 38 | 1020.2 |
| 20260904003622 | 75 | 186 | 0.0 | 1.0 | 0.00 | 0.02 | 0.02 | 38 | 1020.1 |
| 20260904003118 | 77 | 205 | 0.0 | 0.0 | 0.00 | 0.02 | 0.02 | 37 | 1019.9 |
| 20260904002613 | 77 | 183 | 0.0 | 0.0 | 0.00 | 0.02 | 0.02 | 36 | 1020.3 |
| 20260904002108 | 78 | 211 | 1.0 | 1.0 | 0.00 | 0.02 | 0.02 | 34 | 1020.4 |
| 20260904001603 | 80 | 341 | 0.0 | 1.0 | 0.00 | 0.02 | 0.02 | 35 | 1020.2 |
| 20260904001102 | 81 | 217 | 0.0 | 1.0 | 0.00 | 0.02 | 0.02 | 31 | 1020.2 |
| 20260904000557 | 81 | 168 | 1.0 | 1.0 | 0.00 | 0.02 | 0.02 | 30 | 1020.1 |
| 20260904000053 | 81 | 178 | 0.0 | 0.0 | 0.00 | 0.02 | 0.02 | 35 | 1020.1 |
| 20260903235547 | 79 | 190 | 0.0 | 0.0 | 0.00 | 0.02 | 0.02 | 37 | 1020.3 |
| 20260903235043 | 79 | 205 | 0.0 | 0.0 | 0.00 | 0.02 | 0.02 | 32 | 1020.1 |
| 20260903234538 | 81 | 280 | 2.0 | 2.0 | 0.00 | 0.02 | 0.02 | 32 | 1020.3 |
| 20260903234034 | 82 | 194 | 2.0 | 3.0 | 0.00 | 0.02 | 0.02 | 31 | 1019.9 |
| 20260903233530 | 82 | 175 | 1.0 | 1.0 | 0.00 | 0.02 | 0.02 | 30 | 1020.2 |
| 20260903233025 | 81 | 201 | 1.0 | 1.0 | 0.00 | 0.02 | 0.02 | 32 | 1020.1 |
| 20260903232521 | 80 | 210 | 0.0 | 0.0 | 0.00 | 0.02 | 0.02 | 36 | 1020.2 |
| 20260903232021 | 81 | 222 | 0.0 | 1.0 | 0.00 | 0.02 | 0.02 | 32 | 1020.1 |
| 20260903231515 | 81 | 180 | 0.0 | 0.0 | 0.00 | 0.02 | 0.02 | 33 | 1020.2 |
| 20260903231009 | 80 | 66 | 0.0 | 1.0 | 0.00 | 0.02 | 0.02 | 30 | 1020.2 |
| 20260903230506 | 81 | 246 | 0.0 | 0.0 | 0.00 | 0.02 | 0.02 | 31 | 1020.3 |
| 20260903230003 | 81 | 131 | 0.0 | 1.0 | 0.00 | 0.02 | 0.02 | 33 | 1020.4 |
| 20260903225457 | 81 | 245 | 1.0 | 1.0 | 0.00 | 0.02 | 0.02 | 30 | 1020.3 |
| 20260903224953 | 84 | 200 | 3.0 | 5.0 | 0.00 | 0.02 | 0.02 | 29 | 1020.4 |
| 20260903224449 | 85 | 157 | 2.0 | 2.0 | 0.00 | 0.02 | 0.02 | 28 | 1020.4 |
| 20260903223945 | 83 | 94 | 0.0 | 1.0 | 0.00 | 0.02 | 0.02 | 34 | 1020.3 |
| 20260903223444 | 80 | 199 | 1.0 | 1.0 | 0.00 | 0.02 | 0.02 | 33 | 1020.4 |
| 20260903222943 | 82 | 169 | 0.0 | 0.0 | 0.00 | 0.02 | 0.02 | 30 | 1020.4 |
| 20260903222438 | 85 | 224 | 1.0 | 2.0 | 0.00 | 0.02 | 0.02 | 27 | 1020.7 |
| 20260903221937 | 85 | 206 | 1.0 | 1.0 | 0.00 | 0.02 | 0.02 | 27 | 1020.7 |
| 20260903221432 | 83 | 98 | 0.0 | 1.0 | 0.00 | 0.02 | 0.02 | 31 | 1020.6 |
| 20260903220929 | 84 | 155 | 0.0 | 1.0 | 0.00 | 0.02 | 0.02 | 27 | 1020.7 |
| 20260903220424 | 82 | 185 | 0.0 | 0.0 | 0.00 | 0.02 | 0.02 | 29 | 1020.8 |
| 20260903215921 | 82 | 99 | 1.0 | 3.0 | 0.00 | 0.02 | 0.02 | 32 | 1020.6 |
| 20260903215419 | 83 | 128 | 1.0 | 1.0 | 0.00 | 0.02 | 0.02 | 29 | 1020.9 |
| 20260903214916 | 85 | 68 | 0.0 | 0.0 | 0.00 | 0.02 | 0.02 | 30 | 1021.0 |
| 20260903214413 | 85 | 215 | 1.0 | 2.0 | 0.00 | 0.02 | 0.02 | 27 | 1021.0 |